SCP
0 0 0 0 0 0 0 0 0 0 0 0 0 0 0 0 0 0 0 0 0 0 0 0 0 0 0 0 0 0 0 0 0 0 0 0 0 0 0 0 0 0 0
0 0 0 0 0 0 0 0 0 0 0 0 0 0 0 0 0 0 0 0 0 0 0 0 0 0 0 0 0 0 0 0 0 0 0 0 0 0 0 0 0 0 0
0 0 0 0 0 0 0 0 0 0 0 -0 0 0 0 0 0 0 0 0 0 0 0 0 0 0 0 0 0 0 0 0 0 0 0 0 0 0 0 0 0 0 0
0 0 0 0 0 0 0 0 0 0 -0 -0 -0 0 0 0 0 0 0 0 0 0 0 0 0 0 0 0 0 0 0 0 0 0 0 0 0 0 0 0 0 0 0
0 0 0 0 0 0 0 0 0 0 0 -0 0 0 0 0 0 0 0 0 0 0 0 0 0 0 0 0 0 0 0 0 0 0 0 0 0 0 0 0 0 0 0
0 0 0 0 0 0 0 0 0 0 0 0 0 0 0 0 0 0 0 0 0 0 0 0 0 0 0 0 0 0 0 0 0 0 0 0 0 0 0 0 0 0 0
0 0 0 0 0 0 0 0 0 0 0 0 0 0 0 0 0 0 0 0 0 0 0 0 0 0 0 0 0 0 0 0 0 0 0 0 0 0 0 0 0 0 0
0 0 0 0 0 0 0 0 0 0 0 0 0 0 0 0 0 0 0 0 0 0 0 0 0 0 0 0 0 0 0 0 0 0 0 0 0 0 0 0 0 0 0
0 0 0 0 0 0 0 0 0 0 0 0 0 0 0 0 0 0 0 0 0 0 0 0 0 0 0 0 0 0 0 0 0 0 0 0 0 0 0 0 0 0 0
0 0 0 0 0 0 0 0 0 0 0 0 0 0 0 0 0 0 0 0 0 0 0 0 0 0 0 0 0 0 0 0 0 0 0 0 0 0 0 0 0 0 0
0 0 0 0 0 0 0 0 0 0 0 0 0 0 0 0 0 0 0 0 0 0 0 0 0 0 0 0 0 0 0 0 0 0 0 0 0 0 0 0 0 0 0
0 0 0 0 0 0 0 0 0 0 0 0 0 0 0 0 0 0 0 0 0 0 0 0 0 0 0 0 0 0 0 0 0 0 0 0 0 0 0 0 0 0 0
0 0 0 0 0 0 0 0 0 0 0 0 0 0 0 0 0 0 0 0 0 0 0 0 0 0 0 0 0 0 0 0 0 0 0 0 0 0 0 0 0 0 0
0 0 0 0 0 0 0 0 0 0 0 0 0 0 0 0 0 0 0 0 0 0 0 0 0 0 0 0 0 0 0 0 0 0 0 0 0 0 0 0 0 0 0
0 0 1 0 0 0 0 0 0 0 0 0 0 0 0 0 0 0 0 0 0 0 0 0 0 0 0 0 0 0 0 0 0 0 0 0 0 0 0 0 0 0 0
1 1 1 1 0 0 0 0 0 0 0 0 0 0 0 0 0 0 0 0 0 0 0 0 0 0 0 0 0 0 0 0 0 0 0 0 0 0 0 0 0 0 0
1 1 1 1 0 0 0 0 0 0 0 0 0 0 0 0 0 0 0 0 0 0 0 0 0 0 0 0 0 0 0 0 0 0 0 0 0 0 0 0 0 0 0
0 0 0 0 0 0 0 0 0 0 0 0 0 0 0 0 0 0 0 0 0 0 0 0 0 0 0 0 0 0 0 0 0 0 0 0 0 0 0 0 0 0 0
0 0 0 0 0 0 0 0 0 0 0 0 0 0 0 0 0 0 0 0 0 0 0 0 0 0 0 0 0 0 0 0 0 0 0 0 0 0 0 0 0 0 0
0 0 0 0 0 0 0 0 0 0 0 0 0 0 0 0 0 0 0 0 0 0 0 0 0 0 0 0 0 0 0 0 0 0 0 0 0 0 0 0 0 0 0
0 0 0 0 0 0 0 0 0 0 0 0 0 0 0 0 0 0 0 0 0 0 0 0 0 0 0 0 0 0 0 0 0 0 0 0 0 0 0 0 0 0 0
0 0 0 0 0 0 0 0 0 0 0 0 0 0 0 0 0 0 0 0 0 0 0 0 0 0 0 0 0 0 0 0 0 0 0 0 0 0 0 0 0 0 0
0 0 0 0 0 0 0 0 0 0 0 0 0 0 0 0 0 0 0 0 0 0 0 0 0 0 0 0 0 0 0 0 0 0 0 0 0 0 0 0 0 0 0
0 0 0 0 0 0 0 0 0 0 0 0 0 0 0 0 0 0 0 0 0 0 0 0 0 0 0 0 0 0 0 0 0 0 0 0 0 0 0 0 0 0 0
0 0 0 0 0 0 0 0 0 0 0 0 0 0 0 0 0 0 0 0 0 0 0 0 0 0 0 0 0 0 0 0 0 0 0 0 0 0 0 0 0 0 0
0 0 0 0 0 0 0 0 0 0 0 0 0 0 0 0 0 0 0 0 0 0 0 0 0 0 0 0 0 0 0 0 0 0 0 0 0 0 0 0 0 0 0
Wind_Speed
1 1 1 1 1 1 2 1 1 1 1 2 1 1 2 0 2 4 5 9 9 8 8 8 8 8 8 8 8 8 9 9 9 9 9 8 8 8 7 7 7 8 7
1 1 1 1 0 0 1 1 1 1 1 1 1 1 1 1 1 2 4 5 8 8 7 7 7 7 7 8 8 8 9 9 9 10 9 9 8 8 8 8 8 8 8
2 2 2 1 1 0 1 1 0 0 1 1 1 1 1 1 1 2 3 3 4 8 8 8 7 7 8 8 9 8 8 9 9 9 9 9 9 8 8 8 8 8 8
2 1 1 2 1 1 1 0 0 0 1 0 1 0 1 1 2 2 2 3 3 4 6 8 8 8 8 9 9 9 10 9 9 9 9 9 9 9 8 8 8 8 8
2 1 1 1 1 1 1 0 1 1 0 0 1 1 1 1 1 2 2 2 3 3 4 7 9 8 8 9 9 10 10 10 9 9 9 9 9 9 9 8 9 9 8
2 1 2 2 1 1 1 1 1 0 1 1 1 1 1 1 1 1 2 2 2 4 4 5 5 6 9 9 9 10 10 10 10 9 9 9 9 10 9 9 9 10 10
2 2 1 2 1 1 1 2 1 0 1 1 0 0 1 2 2 2 1 1 2 2 3 4 4 4 4 8 9 10 10 10 10 10 10 9 9 9 9 9 10 10 10
2 2 2 2 2 2 2 1 1 1 1 1 1 1 0 0 0 2 2 2 2 1 2 4 4 4 4 3 5 10 10 10 10 10 10 10 9 9 9 10 10 11 11
2 1 2 2 2 2 2 2 2 2 1 1 1 1 1 1 0 1 1 2 2 1 1 2 3 4 4 4 4 7 9 9 10 10 10 10 9 10 10 11 11 11 10
2 2 2 2 1 1 2 2 2 1 1 1 1 1 1 1 1 0 1 1 2 2 2 3 3 3 3 3 4 7 8 9 9 9 9 9 9 10 10 10 10 10 10
2 2 2 2 1 1 1 1 1 1 1 1 1 1 1 1 1 1 1 1 1 2 3 2 2 2 3 3 4 6 8 8 8 8 8 8 8 9 10 10 10 10 10
2 2 3 2 1 1 1 1 1 1 0 0 1 1 0 0 1 1 1 1 1 2 2 2 2 2 2 3 4 8 9 8 8 7 7 7 7 8 8 9 9 9 9
2 2 3 2 1 1 1 1 2 1 1 1 1 1 1 1 1 0 1 1 1 1 1 1 2 2 2 3 3 7 9 9 8 8 7 7 7 7 7 8 8 8 8
3 3 3 3 2 1 1 1 1 1 1 1 1 1 1 1 1 0 0 1 1 1 1 1 1 2 2 3 5 7 5 9 9 9 8 8 7 7 8 8 7 7 6
2 3 3 3 2 2 1 1 1 1 1 1 1 1 1 1 1 1 1 0 1 1 1 2 1 1 1 2 5 4 5 9 9 9 9 9 8 8 8 8 8 7 7
2 2 2 2 2 2 2 1 1 1 2 1 1 1 1 1 1 1 1 1 1 1 1 1 2 1 1 2 4 4 4 9 10 9 9 9 9 8 8 8 8 8 8
2 2 2 2 2 2 1 1 1 2 2 2 1 1 1 1 1 2 2 1 1 1 1 1 1 0 1 1 2 2 3 4 6 10 10 10 9 9 9 8 8 8 8
2 2 2 1 1 2 1 1 1 1 1 1 1 1 1 1 1 1 2 2 2 1 1 1 1 1 1 2 2 2 2 3 3 8 11 11 10 9 9 8 8 8 8
2 2 2 1 1 1 1 0 1 0 0 0 0 1 1 0 1 1 1 2 1 1 1 1 1 1 1 1 2 2 2 2 3 5 9 10 10 10 9 9 9 8 8
2 1 1 1 1 1 1 1 0 1 0 0 0 0 0 0 1 1 1 1 1 1 1 1 1 1 1 1 1 1 2 2 3 3 4 6 8 10 10 10 9 9 8
2 1 1 1 0 1 2 2 1 1 1 0 0 0 1 1 1 0 1 1 1 1 2 1 1 1 1 1 1 1 2 1 2 1 1 2 3 3 5 7 9 9 9
1 1 0 1 1 1 3 4 3 2 1 1 1 1 1 1 1 2 1 1 1 1 2 1 1 1 2 1 1 2 1 1 2 1 0 2 2 3 3 4 7 10 10
1 1 0 1 2 2 3 3 3 2 2 1 1 1 1 1 1 0 1 2 3 3 3 2 2 3 2 2 2 3 2 2 2 2 1 2 2 2 2 3 8 10 11
2 1 1 1 1 2 2 1 2 2 2 2 1 1 1 1 2 2 1 1 2 2 3 3 2 3 2 2 2 3 3 3 3 2 2 2 2 2 2 2 5 8 9
2 2 2 1 1 2 1 1 1 2 2 2 2 1 1 0 2 2 1 2 2 2 3 2 3 3 4 4 3 2 2 2 3 2 1 2 2 1 1 2 3 6 8
2 2 2 1 1 2 3 2 2 2 2 2 1 1 1 1 2 1 1 2 3 3 3 2 3 4 4 5 5 4 3 3 3 2 1 1 2 1 2 2 2 2 3
Wind_Direction
138 121 120 145 182 166 161 182 201 170 222 235 236 150 151 149 96 113 134 150 157 163 166 175 176 176 176 177 175 176 182 181 179 176 176 178 179 181 183 183 181 178 177
125 128 153 148 218 122 113 167 181 182 205 214 210 111 124 109 101 123 138 153 168 171 169 173 173 176 179 179 179 182 186 185 184 181 180 183 183 183 187 191 191 188 184
134 151 146 146 131 112 102 104 116 206 189 187 149 113 129 121 129 142 150 158 168 179 178 176 175 180 182 187 189 189 187 184 185 184 185 188 188 189 193 196 195 193 192
146 157 137 124 132 126 102 124 164 87 86 144 114 132 127 131 155 165 164 159 160 165 180 185 187 190 192 193 191 192 193 190 188 188 189 192 195 195 197 201 201 198 197
158 160 126 113 145 133 130 163 90 96 168 157 167 184 167 146 168 176 165 169 167 157 163 183 193 199 202 202 199 196 197 197 195 194 194 197 199 200 201 203 204 201 202
148 155 140 148 179 134 105 89 80 91 195 218 242 159 164 178 179 164 194 169 165 174 172 174 186 201 206 205 200 201 201 200 202 200 200 200 203 203 203 206 209 208 209
162 160 146 153 171 145 127 116 123 209 198 179 168 326 211 193 164 173 184 176 179 182 175 179 183 184 194 200 201 201 202 201 203 203 204 204 203 205 207 208 212 215 215
161 164 149 164 159 141 135 155 162 209 237 195 170 191 235 116 263 189 178 192 185 196 193 197 186 179 187 180 193 197 201 203 204 205 207 208 207 208 212 215 218 219 220
160 155 151 157 151 162 159 187 182 185 227 269 198 189 184 175 286 229 205 189 174 201 207 205 193 182 181 172 175 190 194 198 204 209 211 212 210 211 218 222 223 221 221
138 138 134 131 147 161 157 199 190 187 206 231 245 237 197 139 177 240 270 201 195 204 214 225 202 188 173 155 166 177 188 195 203 209 210 207 208 211 217 222 226 226 224
119 120 120 118 117 140 160 200 152 167 240 246 260 243 192 170 208 189 233 249 256 221 200 206 188 182 178 173 171 173 182 191 196 202 207 210 212 212 215 221 224 225 223
118 109 106 98 105 134 156 166 171 182 231 208 313 296 224 212 216 209 220 224 243 254 221 193 190 189 185 172 179 168 178 183 187 190 196 202 209 210 213 217 222 224 224
130 122 117 116 123 137 166 152 160 183 190 217 279 306 332 315 274 266 234 249 253 267 259 213 198 186 190 160 158 172 180 180 184 186 191 199 207 212 213 218 223 228 230
133 135 139 148 156 169 169 134 162 165 159 217 263 322 309 301 309 291 221 214 255 269 263 246 230 193 182 158 168 174 174 180 184 189 194 201 208 214 217 219 222 224 230
137 141 152 156 164 165 158 156 158 159 146 201 250 237 261 288 309 307 292 224 201 263 265 234 237 229 175 151 162 177 173 183 188 193 198 204 207 210 213 215 218 221 224
124 140 155 162 159 164 186 173 161 164 174 200 206 213 265 287 313 289 281 264 227 215 260 242 219 202 168 150 166 181 178 179 188 192 199 204 207 210 212 216 218 221 222
136 140 139 134 130 146 164 161 214 180 194 205 213 214 240 263 302 308 293 280 270 244 251 289 312 246 152 164 146 193 188 177 186 195 197 200 204 208 211 213 216 220 223
131 128 118 120 133 131 134 167 242 200 193 200 204 211 250 251 251 289 305 302 294 280 248 288 300 295 231 187 188 218 210 202 197 192 195 199 202 205 209 210 212 218 224
121 121 131 139 126 116 125 176 253 15 116 168 239 232 240 273 266 263 270 277 282 293 250 246 257 258 249 215 217 232 232 226 229 197 195 201 206 208 209 209 211 215 220
137 143 145 136 133 99 73 41 28 307 67 99 32 315 79 357 317 300 273 296 308 331 312 272 271 262 251 245 226 254 256 240 232 223 193 193 203 210 214 212 214 216 219
157 147 138 129 113 90 41 31 338 280 344 360 339 301 83 68 62 333 308 331 334 309 287 283 275 287 288 303 276 267 263 266 272 225 190 197 186 203 212 219 221 220 220
139 139 145 78 52 57 53 44 15 346 328 318 305 294 180 175 179 200 233 240 262 285 297 300 300 300 302 305 314 301 287 290 283 267 204 251 193 204 209 204 211 213 216
149 155 173 111 101 82 70 47 19 328 300 284 272 280 292 348 95 95 261 244 253 254 242 255 279 283 284 299 314 308 309 297 268 262 261 264 236 232 223 217 207 207 208
180 192 204 179 134 113 108 61 349 299 288 280 284 300 320 356 4 15 334 306 271 275 247 235 252 270 279 282 285 280 277 273 264 263 235 253 252 242 226 218 212 208 206
184 206 212 203 146 124 137 143 310 283 260 261 258 282 290 76 53 29 345 311 300 288 262 249 238 247 255 262 253 282 291 287 281 270 250 249 266 261 232 223 222 214 212
194 210 216 199 172 163 184 198 222 264 267 262 247 207 98 109 104 55 340 309 297 296 310 305 281 258 250 249 238 226 252 274 281 277 281 270 271 266 266 233 206 199 213